When you browse on this site, cookies collect data to enhance your experience and personalize the content and advertising you see.
Visit our Privacy Policy to learn more. By continuing to use the site, you agree to this use of cookies and data.
  • In Portugal
  • List of Countries
  • For 7 days
  • Water Temperature
  • Weather Map
  • Weather Widgets
  • user-avatar
    Login

    Hourly Weather Zaranj

    Today, 18 October, Friday

    Time Temperature Precipitation Wind Pressure Humidity
    00:00 +21°C° 0 mm 8 mps 721 mmHg 27%
    01:00 +21°C° 0 mm 8 mps 721 mmHg 28%
    02:00 +20°C° 0 mm 7 mps 720 mmHg 29%
    03:00 +18°C° 0 mm 7 mps 720 mmHg 30%
    04:00 +19°C° 0 mm 6 mps 720 mmHg 31%
    05:00 +19°C° 0 mm 6 mps 721 mmHg 30%
    06:00 +19°C° 0 mm 6 mps 721 mmHg 29%
    07:00 +19°C° 0 mm 6 mps 721 mmHg 28%
    08:00 +22°C° 0 mm 7 mps 722 mmHg 25%
    09:00 +24°C° 0 mm 9 mps 722 mmHg 21%
    10:00 +27°C° 0 mm 9 mps 722 mmHg 17%
    11:00 +29°C° 0 mm 9 mps 721 mmHg 15%
    12:00 +31°C° 0 mm 8 mps 721 mmHg 14%
    13:00 +32°C° 0 mm 8 mps 720 mmHg 12%
    14:00 +32°C° 0 mm 7 mps 720 mmHg 13%
    15:00 +32°C° 0 mm 7 mps 719 mmHg 13%
    16:00 +30°C° 0 mm 6 mps 719 mmHg 13%
    17:00 +28°C° 0 mm 5 mps 719 mmHg 16%
    18:00 +26°C° 0 mm 5 mps 719 mmHg 19%
    19:00 +23°C° 0 mm 4 mps 719 mmHg 21%
    20:00 +22°C° 0 mm 4 mps 720 mmHg 24%
    21:00 +21°C° 0 mm 4 mps 720 mmHg 26%
    22:00 +21°C° 0 mm 4 mps 720 mmHg 28%
    23:00 +20°C° 0 mm 4 mps 720 mmHg 28%

    Tomorrow, 19 October, Saturday

    Time Temperature Precipitation Wind Pressure Humidity
    00:00 +20°C° 0 mm 5 mps 720 mmHg 28%
    01:00 +19°C° 0 mm 5 mps 720 mmHg 28%
    02:00 +19°C° 0 mm 5 mps 720 mmHg 29%
    03:00 +17°C° 0 mm 5 mps 720 mmHg 30%
    04:00 +18°C° 0 mm 4 mps 720 mmHg 30%
    05:00 +18°C° 0 mm 4 mps 720 mmHg 30%
    06:00 +18°C° 0 mm 4 mps 721 mmHg 29%
    07:00 +18°C° 0 mm 4 mps 721 mmHg 29%
    08:00 +21°C° 0 mm 4 mps 722 mmHg 25%
    09:00 +23°C° 0 mm 4 mps 722 mmHg 20%
    10:00 +27°C° 0 mm 4 mps 722 mmHg 16%
    11:00 +28°C° 0 mm 4 mps 722 mmHg 15%
    12:00 +29°C° 0 mm 3 mps 721 mmHg 13%
    13:00 +30°C° 0 mm 2 mps 721 mmHg 12%
    14:00 +30°C° 0 mm 2 mps 720 mmHg 11%
    15:00 +31°C° 0 mm 2 mps 720 mmHg 10%
    16:00 +31°C° 0 mm 1 mps 719 mmHg 9%
    17:00 +28°C° 0 mm 1 mps 719 mmHg 12%
    18:00 +25°C° 0 mm 1 mps 719 mmHg 14%
    19:00 +22°C° 0 mm 1 mps 719 mmHg 16%
    20:00 +21°C° 0 mm 1 mps 719 mmHg 17%
    21:00 +20°C° 0 mm 1 mps 719 mmHg 18%
    22:00 +17°C° 0 mm 0 mps 719 mmHg 19%
    23:00 +19°C° 0 mm 1 mps 719 mmHg 20%

    Day after tomorrow, 20 October, Sunday

    Time Temperature Precipitation Wind Pressure Humidity
    00:00 +19°C° 0 mm 1 mps 719 mmHg 20%
    01:00 +18°C° 0 mm 2 mps 719 mmHg 21%
    02:00 +18°C° 0 mm 2 mps 719 mmHg 23%
    03:00 +17°C° 0 mm 2 mps 719 mmHg 26%
    04:00 +17°C° 0 mm 2 mps 719 mmHg 28%
    05:00 +17°C° 0 mm 2 mps 720 mmHg 26%
    06:00 +18°C° 0 mm 2 mps 720 mmHg 24%
    07:00 +19°C° 0 mm 2 mps 721 mmHg 22%
    08:00 +23°C° 0 mm 2 mps 721 mmHg 19%
    09:00 +26°C° 0 mm 2 mps 721 mmHg 16%
    10:00 +29°C° 0 mm 2 mps 722 mmHg 13%
    11:00 +30°C° 0 mm 2 mps 721 mmHg 12%
    12:00 +31°C° 0 mm 1 mps 721 mmHg 10%
    13:00 +32°C° 0 mm 1 mps 720 mmHg 9%
    14:00 +32°C° 0 mm 1 mps 720 mmHg 9%
    15:00 +32°C° 0 mm 1 mps 719 mmHg 9%
    16:00 +32°C° 0 mm 2 mps 719 mmHg 9%
    17:00 +29°C° 0 mm 1 mps 719 mmHg 11%
    18:00 +26°C° 0 mm 1 mps 719 mmHg 13%
    19:00 +22°C° 0 mm 1 mps 719 mmHg 16%
    20:00 +22°C° 0 mm 1 mps 719 mmHg 16%
    21:00 +21°C° 0 mm 1 mps 719 mmHg 17%
    22:00 +21°C° 0 mm 1 mps 719 mmHg 17%
    23:00 +20°C° 0 mm 2 mps 719 mmHg 19%

    21 October, Monday

    Time Temperature Precipitation Wind Pressure Humidity
    00:00 +21°C° 0 mm 3 mps 719 mmHg 20%
    01:00 +21°C° 0 mm 4 mps 720 mmHg 21%
    02:00 +21°C° 0 mm 4 mps 720 mmHg 22%
    03:00 +21°C° 0 mm 4 mps 719 mmHg 22%
    04:00 +20°C° 0 mm 4 mps 719 mmHg 23%
    05:00 +20°C° 0 mm 4 mps 720 mmHg 23%
    06:00 +20°C° 0 mm 4 mps 720 mmHg 23%
    07:00 +20°C° 0 mm 4 mps 720 mmHg 23%
    08:00 +23°C° 0 mm 4 mps 720 mmHg 19%
    09:00 +26°C° 0 mm 4 mps 721 mmHg 15%
    10:00 +29°C° 0 mm 5 mps 721 mmHg 12%
    11:00 +30°C° 0 mm 4 mps 720 mmHg 10%
    12:00 +32°C° 0 mm 4 mps 720 mmHg 9%
    13:00 +34°C° 0 mm 4 mps 719 mmHg 8%
    14:00 +34°C° 0 mm 4 mps 719 mmHg 8%
    15:00 +34°C° 0 mm 4 mps 718 mmHg 8%
    16:00 +33°C° 0 mm 3 mps 718 mmHg 9%
    17:00 +30°C° 0 mm 4 mps 718 mmHg 12%
    18:00 +28°C° 0 mm 4 mps 718 mmHg 15%
    19:00 +26°C° 0 mm 4 mps 718 mmHg 18%
    20:00 +25°C° 0 mm 5 mps 718 mmHg 19%
    21:00 +25°C° 0 mm 5 mps 718 mmHg 19%
    22:00 +23°C° 0 mm 5 mps 718 mmHg 20%
    23:00 +23°C° 0 mm 6 mps 718 mmHg 21%

    22 October, Tuesday

    Time Temperature Precipitation Wind Pressure Humidity
    00:00 +22°C° 0 mm 6 mps 718 mmHg 23%
    01:00 +22°C° 0 mm 6 mps 718 mmHg 25%
    02:00 +21°C° 0 mm 7 mps 718 mmHg 25%
    03:00 +21°C° 0 mm 7 mps 718 mmHg 25%
    04:00 +20°C° 0 mm 7 mps 718 mmHg 26%
    05:00 +21°C° 0 mm 7 mps 719 mmHg 25%
    06:00 +21°C° 0 mm 7 mps 719 mmHg 24%
    07:00 +21°C° 0 mm 8 mps 720 mmHg 24%
    08:00 +23°C° 0 mm 8 mps 720 mmHg 21%
    09:00 +26°C° 0 mm 9 mps 720 mmHg 19%
    10:00 +28°C° 0 mm 10 mps 721 mmHg 16%
    11:00 +29°C° 0 mm 9 mps 720 mmHg 15%
    12:00 +31°C° 0 mm 9 mps 720 mmHg 14%
    13:00 +32°C° 0 mm 8 mps 719 mmHg 13%
    14:00 +32°C° 0 mm 8 mps 719 mmHg 13%
    15:00 +30°C° 0 mm 7 mps 719 mmHg 13%
    16:00 +30°C° 0 mm 7 mps 718 mmHg 13%
    17:00 +28°C° 0 mm 7 mps 719 mmHg 15%
    18:00 +26°C° 0 mm 6 mps 719 mmHg 18%
    19:00 +24°C° 0 mm 6 mps 719 mmHg 20%
    20:00 +23°C° 0 mm 7 mps 719 mmHg 21%
    21:00 +22°C° 0 mm 8 mps 720 mmHg 21%
    22:00 +22°C° 0 mm 8 mps 720 mmHg 22%
    23:00 +21°C° 0 mm 8 mps 720 mmHg 23%

    23 October, Wednesday

    Time Temperature Precipitation Wind Pressure Humidity
    00:00 +20°C° 0 mm 8 mps 719 mmHg 24%
    01:00 +19°C° 0 mm 9 mps 719 mmHg 25%
    02:00 +18°C° 0 mm 9 mps 719 mmHg 26%
    03:00 +18°C° 0 mm 9 mps 719 mmHg 27%
    04:00 +17°C° 0 mm 9 mps 720 mmHg 28%
    05:00 +17°C° 0 mm 9 mps 720 mmHg 28%
    06:00 +17°C° 0 mm 9 mps 720 mmHg 28%
    07:00 +18°C° 0 mm 9 mps 721 mmHg 27%
    08:00 +21°C° 0 mm 10 mps 721 mmHg 23%
    09:00 +23°C° 0 mm 11 mps 721 mmHg 18%
    10:00 +26°C° 0 mm 12 mps 721 mmHg 14%
    11:00 +27°C° 0 mm 12 mps 721 mmHg 13%
    12:00 +27°C° 0 mm 12 mps 720 mmHg 12%
    13:00 +28°C° 0 mm 12 mps 719 mmHg 11%
    14:00 +28°C° 0 mm 11 mps 719 mmHg 11%
    15:00 +27°C° 0 mm 11 mps 719 mmHg 12%
    16:00 +27°C° 0 mm 10 mps 718 mmHg 12%
    17:00 +24°C° 0 mm 10 mps 718 mmHg 14%
    18:00 +23°C° 0 mm 9 mps 719 mmHg 16%
    19:00 +21°C° 0 mm 9 mps 719 mmHg 18%
    20:00 +21°C° 0 mm 9 mps 719 mmHg 19%
    21:00 +20°C° 0 mm 8 mps 719 mmHg 20%
    22:00 +18°C° 0 mm 8 mps 720 mmHg 21%
    23:00 +18°C° 0 mm 8 mps 719 mmHg 21%
    Show more